| time (UTC) | temp C | wind direction | speed KPH | gust KPH | rain 1hr cm | rain 24hr cm | rain mn cm | humidity % | barometer mb |
| 20260507084517 | 10 | 0 | 1.6 | 6.4 | 0.00 | 0.00 | 0.00 | 46 | 1014.6 |
| 20260507083536 | 10 | 338 | 4.8 | 8.0 | 0.00 | 0.00 | 0.00 | 50 | 1014.7 |
| 20260507082536 | 10 | 315 | 3.2 | 6.4 | 0.00 | 0.00 | 0.00 | 52 | 1014.5 |
| 20260507081517 | 10 | 338 | 4.8 | 12.9 | 0.00 | 0.00 | 0.00 | 50 | 1014.5 |
| 20260507080516 | 9 | 270 | 3.2 | 8.0 | 0.00 | 0.00 | 0.00 | 53 | 1014.4 |
| 20260507075516 | 9 | 270 | 3.2 | 6.4 | 0.00 | 0.00 | 0.00 | 54 | 1014.4 |
| 20260507074517 | 8 | 248 | 3.2 | 6.4 | 0.00 | 0.00 | 0.00 | 52 | 1014.4 |
| 20260507073517 | 8 | 338 | 1.6 | 6.4 | 0.00 | 0.00 | 0.00 | 52 | 1014.4 |
| 20260507072516 | 8 | 248 | 3.2 | 6.4 | 0.00 | 0.00 | 0.00 | 52 | 1014.4 |
| 20260507071517 | 8 | 293 | 3.2 | 6.4 | 0.00 | 0.00 | 0.00 | 51 | 1014.3 |
| 20260507070516 | 8 | 315 | 3.2 | 8.0 | 0.00 | 0.00 | 0.00 | 54 | 1014.2 |
| 20260507065537 | 8 | 293 | 3.2 | 9.7 | 0.00 | 0.00 | 0.00 | 55 | 1014.3 |
| 20260507064517 | 8 | 293 | 3.2 | 6.4 | 0.00 | 0.00 | 0.00 | 56 | 1014.2 |
| 20260507063516 | 7 | 315 | 3.2 | 6.4 | 0.00 | 0.00 | 0.00 | 58 | 1014.1 |
| 20260507062556 | 7 | 338 | 1.6 | 4.8 | 0.00 | 0.00 | 0.00 | 57 | 1014.1 |
| 20260507061516 | 6 | 270 | 1.6 | 4.8 | 0.00 | 0.00 | 0.00 | 58 | 1013.9 |
| 20260507060516 | 5 | 270 | 3.2 | 4.8 | 0.00 | 0.00 | 0.00 | 64 | 1013.8 |
| 20260507055517 | 5 | 338 | 4.8 | 8.0 | 0.00 | 0.00 | 0.00 | 65 | 1013.7 |
| 20260507054517 | 5 | 315 | 3.2 | 6.4 | 0.00 | 0.00 | 0.00 | 66 | 1013.7 |
| 20260507053516 | 4 | 293 | 1.6 | 4.8 | 0.00 | 0.00 | 0.00 | 69 | 1013.6 |
| 20260507052516 | 3 | 315 | 4.8 | 8.0 | 0.00 | 0.00 | 0.00 | 69 | 1013.6 |
| 20260507051517 | 3 | 293 | 4.8 | 9.7 | 0.00 | 0.00 | 0.00 | 70 | 1013.5 |
| 20260507050516 | 3 | 338 | 3.2 | 9.7 | 0.00 | 0.00 | 0.00 | 70 | 1013.5 |
| 20260507045516 | 3 | 293 | 3.2 | 9.7 | 0.00 | 0.00 | 0.00 | 71 | 1013.4 |
| 20260507044516 | 2 | 315 | 4.8 | 11.3 | 0.00 | 0.00 | 0.00 | 73 | 1013.3 |
| 20260507043516 | 2 | 293 | 3.2 | 6.4 | 0.00 | 0.00 | 0.00 | 74 | 1013.2 |
| 20260507042516 | 2 | 315 | 3.2 | 9.7 | 0.00 | 0.00 | 0.00 | 75 | 1013.3 |
| 20260507041516 | 2 | 293 | 3.2 | 8.0 | 0.00 | 0.00 | 0.00 | 77 | 1013.2 |
| 20260507040516 | 1 | 293 | 3.2 | 6.4 | 0.00 | 0.00 | 0.00 | 79 | 1013.1 |
| 20260507035516 | 1 | 293 | 3.2 | 4.8 | 0.00 | 0.00 | 0.00 | 81 | 1013.1 |
| 20260507034516 | 1 | 293 | 3.2 | 4.8 | 0.00 | 0.00 | 0.00 | 80 | 1012.9 |
| 20260507033516 | 1 | 293 | 1.6 | 4.8 | 0.00 | 0.00 | 0.00 | 79 | 1012.9 |
| 20260507032516 | 1 | 0.0 | 3.2 | 0.00 | 0.00 | 0.00 | 79 | 1012.8 | |
| 20260507031516 | 1 | 293 | 1.6 | 3.2 | 0.00 | 0.00 | 0.00 | 78 | 1012.7 |
| 20260507030516 | 1 | 0.0 | 0.0 | 0.00 | 0.00 | 0.00 | 77 | 1012.6 | |
| 20260507025516 | 1 | 293 | 1.6 | 1.6 | 0.00 | 0.00 | 0.00 | 77 | 1012.7 |
| 20260507024536 | 1 | 293 | 1.6 | 4.8 | 0.00 | 0.00 | 0.00 | 77 | 1012.6 |
| 20260507023516 | 1 | 293 | 1.6 | 4.8 | 0.00 | 0.00 | 0.00 | 76 | 1012.5 |
| 20260507022516 | 1 | 293 | 1.6 | 3.2 | 0.00 | 0.00 | 0.00 | 74 | 1012.6 |
| 20260507021517 | 1 | 293 | 1.6 | 3.2 | 0.00 | 0.00 | 0.00 | 74 | 1012.6 |
| 20260507020536 | 2 | 0.0 | 1.6 | 0.00 | 0.00 | 0.00 | 73 | 1012.5 | |
| 20260507015516 | 2 | 293 | 1.6 | 3.2 | 0.00 | 0.00 | 0.00 | 73 | 1012.4 |
| 20260507014516 | 2 | 293 | 3.2 | 4.8 | 0.00 | 0.00 | 0.00 | 74 | 1012.5 |
| 20260507013516 | 2 | 0.0 | 1.6 | 0.00 | 0.00 | 0.00 | 73 | 1012.5 | |
| 20260507012516 | 2 | 0.0 | 3.2 | 0.00 | 0.00 | 0.00 | 73 | 1012.5 | |
| 20260507011536 | 1 | 0.0 | 1.6 | 0.00 | 0.00 | 0.00 | 73 | 1012.4 | |
| 20260507010516 | 1 | 0.0 | 0.0 | 0.00 | 0.00 | 0.00 | 73 | 1012.3 | |
| 20260507005516 | 1 | 180 | 1.6 | 3.2 | 0.00 | 0.00 | 0.00 | 74 | 1012.0 |
| 20260507004516 | 1 | 180 | 1.6 | 3.2 | 0.00 | 0.00 | 0.00 | 72 | 1012.1 |
| 20260507003536 | 1 | 180 | 1.6 | 3.2 | 0.00 | 0.00 | 0.00 | 73 | 1012.0 |
| 20260507002516 | 1 | 180 | 1.6 | 3.2 | 0.00 | 0.00 | 0.00 | 72 | 1012.0 |
| 20260507001516 | 1 | 0.0 | 1.6 | 0.00 | 0.00 | 0.00 | 72 | 1012.0 | |
| 20260507000536 | 1 | 180 | 1.6 | 3.2 | 0.00 | 0.00 | 0.00 | 71 | 1012.0 |
| 20260506235516 | 1 | 0.0 | 1.6 | 0.00 | 0.00 | 0.00 | 70 | 1011.9 | |
| 20260506234516 | 1 | 0.0 | 1.6 | 0.00 | 0.00 | 0.00 | 68 | 1011.9 | |
| 20260506233516 | 2 | 158 | 1.6 | 3.2 | 0.00 | 0.00 | 0.00 | 67 | 1011.9 |
| 20260506232516 | 2 | 0.0 | 1.6 | 0.00 | 0.00 | 0.00 | 66 | 1011.8 | |
| 20260506231516 | 2 | 158 | 1.6 | 3.2 | 0.00 | 0.00 | 0.00 | 64 | 1011.7 |
| 20260506230516 | 3 | 158 | 1.6 | 3.2 | 0.00 | 0.00 | 0.00 | 62 | 1011.9 |
| 20260506225516 | 3 | 158 | 1.6 | 3.2 | 0.00 | 0.00 | 0.00 | 61 | 1011.9 |
| 20260506224536 | 4 | 158 | 1.6 | 3.2 | 0.00 | 0.00 | 0.00 | 59 | 1012.0 |
| 20260506223516 | 4 | 293 | 1.6 | 8.0 | 0.00 | 0.00 | 0.00 | 59 | 1011.9 |
| 20260506222536 | 4 | 293 | 3.2 | 4.8 | 0.00 | 0.00 | 0.00 | 57 | 1011.9 |
| 20260506221516 | 5 | 315 | 1.6 | 4.8 | 0.00 | 0.00 | 0.00 | 57 | 1011.8 |
| 20260506220516 | 5 | 315 | 1.6 | 3.2 | 0.00 | 0.00 | 0.00 | 55 | 1011.7 |
| 20260506215515 | 4 | 225 | 3.2 | 9.7 | 0.00 | 0.00 | 0.00 | 55 | 1011.7 |
| 20260506214516 | 3 | 23 | 1.6 | 6.4 | 0.00 | 0.00 | 0.00 | 58 | 1011.7 |
| 20260506213515 | 3 | 0.0 | 1.6 | 0.00 | 0.00 | 0.00 | 65 | 1011.1 | |
| 20260506212515 | 3 | 0.0 | 0.0 | 0.00 | 0.00 | 0.00 | 64 | 1010.9 | |
| 20260506211535 | 3 | 315 | 1.6 | 3.2 | 0.00 | 0.00 | 0.00 | 64 | 1010.8 |
| 20260506210515 | 3 | 0.0 | 1.6 | 0.00 | 0.00 | 0.00 | 64 | 1010.8 | |
| 20260506205515 | 3 | 0.0 | 1.6 | 0.00 | 0.00 | 0.00 | 63 | 1010.7 | |
| 20260506204515 | 3 | 0.0 | 0.0 | 0.00 | 0.00 | 0.00 | 62 | 1010.8 | |
| 20260506203518 | 3 | 0.0 | 0.0 | 0.00 | 0.00 | 0.00 | 60 | 1010.7 | |
| 20260506202517 | 3 | 0.0 | 3.2 | 0.00 | 0.00 | 0.00 | 59 | 1010.6 | |
| 20260506201517 | 3 | 0.0 | 1.6 | 0.00 | 0.00 | 0.00 | 56 | 1010.6 | |
| 20260506200517 | 3 | 0.0 | 0.0 | 0.00 | 0.00 | 0.00 | 55 | 1010.5 | |
| 20260506195517 | 3 | 0.0 | 1.6 | 0.00 | 0.00 | 0.00 | 53 | 1010.6 | |
| 20260506194517 | 3 | 0.0 | 0.0 | 0.00 | 0.00 | 0.00 | 53 | 1010.5 | |
| 20260506193517 | 4 | 315 | 1.6 | 4.8 | 0.00 | 0.00 | 0.00 | 51 | 1010.5 |
| 20260506192517 | 5 | 0.0 | 0.0 | 0.00 | 0.00 | 0.00 | 48 | 1010.5 | |
| 20260506191517 | 5 | 0.0 | 0.0 | 0.00 | 0.00 | 0.00 | 47 | 1010.5 | |
| 20260506190517 | 6 | 0.0 | 3.2 | 0.00 | 0.00 | 0.00 | 46 | 1010.5 | |
| 20260506185517 | 6 | 0.0 | 1.6 | 0.00 | 0.00 | 0.00 | 42 | 1010.4 | |
| 20260506184517 | 6 | 203 | 1.6 | 3.2 | 0.00 | 0.00 | 0.00 | 40 | 1010.3 |
| 20260506183517 | 7 | 203 | 1.6 | 4.8 | 0.00 | 0.00 | 0.00 | 39 | 1010.4 |
| 20260506182517 | 7 | 203 | 1.6 | 3.2 | 0.00 | 0.00 | 0.00 | 37 | 1010.3 |
| 20260506181517 | 8 | 203 | 1.6 | 3.2 | 0.00 | 0.00 | 0.00 | 36 | 1010.2 |
| 20260506180517 | 8 | 225 | 1.6 | 4.8 | 0.00 | 0.00 | 0.00 | 36 | 1010.2 |
| 20260506175517 | 9 | 225 | 1.6 | 3.2 | 0.00 | 0.00 | 0.00 | 34 | 1010.1 |
| 20260506174517 | 9 | 203 | 3.2 | 6.4 | 0.00 | 0.00 | 0.00 | 33 | 1010.1 |
| 20260506173517 | 10 | 203 | 3.2 | 6.4 | 0.00 | 0.00 | 0.00 | 32 | 1010.1 |
| 20260506172517 | 10 | 203 | 3.2 | 8.0 | 0.00 | 0.00 | 0.00 | 32 | 1010.1 |
| 20260506171517 | 10 | 225 | 4.8 | 11.3 | 0.00 | 0.00 | 0.00 | 31 | 1010.1 |
| 20260506170517 | 10 | 225 | 6.4 | 11.3 | 0.00 | 0.00 | 0.00 | 30 | 1010.1 |
| 20260506165517 | 11 | 180 | 8.0 | 16.1 | 0.00 | 0.00 | 0.00 | 29 | 1010.0 |
| 20260506164517 | 11 | 225 | 4.8 | 9.7 | 0.00 | 0.00 | 0.00 | 32 | 1010.0 |
| 20260506163537 | 11 | 203 | 4.8 | 14.5 | 0.00 | 0.00 | 0.00 | 31 | 1010.1 |
| 20260506162517 | 11 | 203 | 9.7 | 19.3 | 0.00 | 0.00 | 0.00 | 29 | 1010.1 |
| 20260506161517 | 12 | 203 | 11.3 | 20.9 | 0.00 | 0.00 | 0.00 | 28 | 1010.1 |
| 20260506160517 | 12 | 203 | 9.7 | 17.7 | 0.00 | 0.00 | 0.00 | 29 | 1010.1 |
| 20260506155517 | 12 | 225 | 9.7 | 20.9 | 0.00 | 0.00 | 0.00 | 29 | 1010.2 |
| 20260506154537 | 12 | 225 | 6.4 | 12.9 | 0.00 | 0.00 | 0.00 | 30 | 1010.1 |
| 20260506153517 | 12 | 225 | 9.7 | 19.3 | 0.00 | 0.00 | 0.00 | 30 | 1010.1 |
| 20260506152537 | 12 | 203 | 11.3 | 22.5 | 0.00 | 0.00 | 0.00 | 29 | 1010.2 |
| 20260506151517 | 11 | 225 | 4.8 | 17.7 | 0.00 | 0.00 | 0.00 | 31 | 1010.1 |
| 20260506150517 | 11 | 180 | 8.0 | 17.7 | 0.00 | 0.00 | 0.00 | 32 | 1010.2 |
| 20260506145517 | 12 | 203 | 6.4 | 11.3 | 0.00 | 0.00 | 0.00 | 33 | 1010.3 |
| 20260506144517 | 11 | 180 | 9.7 | 19.3 | 0.00 | 0.00 | 0.00 | 31 | 1010.4 |
| 20260506143517 | 11 | 203 | 8.0 | 19.3 | 0.00 | 0.00 | 0.00 | 33 | 1010.5 |
| 20260506142517 | 11 | 180 | 4.8 | 11.3 | 0.00 | 0.00 | 0.00 | 31 | 1010.5 |
| 20260506141517 | 11 | 180 | 9.7 | 16.1 | 0.00 | 0.00 | 0.00 | 31 | 1010.6 |
| 20260506140517 | 11 | 203 | 9.7 | 16.1 | 0.00 | 0.00 | 0.00 | 30 | 1010.7 |
| 20260506135517 | 11 | 180 | 12.9 | 25.7 | 0.00 | 0.00 | 0.00 | 31 | 1010.7 |
| 20260506134517 | 11 | 225 | 6.4 | 12.9 | 0.00 | 0.00 | 0.00 | 31 | 1010.7 |
| 20260506133517 | 11 | 225 | 8.0 | 14.5 | 0.00 | 0.03 | 0.00 | 30 | 1010.7 |
| 20260506132517 | 11 | 113 | 6.4 | 11.3 | 0.00 | 0.03 | 0.00 | 32 | 1010.8 |
| 20260506131517 | 11 | 203 | 8.0 | 12.9 | 0.00 | 0.03 | 0.00 | 32 | 1010.9 |
| 20260506130517 | 11 | 203 | 8.0 | 14.5 | 0.00 | 0.03 | 0.00 | 32 | 1010.9 |
| 20260506125517 | 11 | 180 | 9.7 | 14.5 | 0.00 | 0.03 | 0.00 | 32 | 1010.9 |
| 20260506124537 | 11 | 180 | 11.3 | 19.3 | 0.00 | 0.03 | 0.00 | 31 | 1011.0 |
| 20260506123517 | 11 | 180 | 9.7 | 20.9 | 0.00 | 0.03 | 0.00 | 33 | 1011.0 |
| 20260506122517 | 11 | 248 | 3.2 | 8.0 | 0.00 | 0.03 | 0.00 | 33 | 1011.0 |
| 20260506121517 | 11 | 203 | 3.2 | 8.0 | 0.00 | 0.03 | 0.00 | 32 | 1011.1 |
| 20260506120517 | 11 | 180 | 6.4 | 11.3 | 0.00 | 0.03 | 0.00 | 32 | 1011.2 |
| 20260506115517 | 12 | 135 | 11.3 | 25.7 | 0.00 | 0.03 | 0.00 | 32 | 1011.2 |
| 20260506114537 | 11 | 203 | 6.4 | 11.3 | 0.00 | 0.03 | 0.00 | 35 | 1011.3 |
| 20260506113537 | 11 | 225 | 8.0 | 17.7 | 0.00 | 0.03 | 0.00 | 34 | 1011.4 |
| 20260506112537 | 10 | 248 | 6.4 | 16.1 | 0.00 | 0.03 | 0.00 | 34 | 1011.4 |
| 20260506111517 | 10 | 270 | 4.8 | 8.0 | 0.00 | 0.03 | 0.00 | 35 | 1011.5 |
| 20260506110517 | 10 | 225 | 6.4 | 11.3 | 0.00 | 0.03 | 0.00 | 34 | 1011.5 |
| 20260506105517 | 11 | 293 | 6.4 | 12.9 | 0.00 | 0.03 | 0.00 | 34 | 1011.6 |
| 20260506104537 | 10 | 203 | 8.0 | 14.5 | 0.00 | 0.03 | 0.00 | 36 | 1011.7 |
| 20260506103517 | 10 | 203 | 8.0 | 16.1 | 0.00 | 0.03 | 0.00 | 35 | 1011.8 |
| 20260506102517 | 10 | 203 | 12.9 | 22.5 | 0.00 | 0.03 | 0.00 | 35 | 1011.8 |
| 20260506101517 | 11 | 180 | 14.5 | 27.4 | 0.00 | 0.03 | 0.00 | 33 | 1011.7 |
| 20260506100517 | 10 | 203 | 8.0 | 17.7 | 0.00 | 0.03 | 0.00 | 38 | 1011.8 |
| 20260506095517 | 11 | 225 | 8.0 | 17.7 | 0.00 | 0.03 | 0.00 | 36 | 1011.9 |
| 20260506094537 | 11 | 180 | 12.9 | 25.7 | 0.00 | 0.03 | 0.00 | 36 | 1012.0 |
| 20260506093517 | 10 | 158 | 12.9 | 22.5 | 0.00 | 0.03 | 0.00 | 34 | 1011.9 |
| 20260506092537 | 11 | 158 | 11.3 | 19.3 | 0.00 | 0.03 | 0.00 | 34 | 1012.0 |
| 20260506091537 | 10 | 180 | 12.9 | 25.7 | 0.00 | 0.03 | 0.00 | 36 | 1012.1 |
| 20260506090517 | 10 | 135 | 8.0 | 16.1 | 0.00 | 0.03 | 0.00 | 39 | 1012.1 |
| 20260506085517 | 10 | 113 | 6.4 | 12.9 | 0.00 | 0.03 | 0.00 | 38 | 1012.2 |